Starlink 11616

operational
NORAD ID: 63137 Int'l Des: 2025-043 Owner: SPXS Country: US Constellation: starlink
LEOCIRCULAR

About Starlink 11616

Description loading...

Live Position

Loading 3D Globe...

Upcoming Passes

Altitude History

Altitude vs Time

uPlot chart will show altitude changes over time

Two-Line Element Set

1 63137U 25043F 25306.44620183 .00273276 00000-0 20551-2 0 9990
2 63137 42.9997 297.3775 0001991 275.7428 84.3213 15.70942584 39465
Epoch: Nov 2, 2025 • Age: 11 hours

Current Status

Altitude 359.7 km
Velocity 7.70 km/s
Sub-Earth Point 42.02°N, 30.93°E
Launch Date Mar 3, 2025
Age 0.6 years
Type internet

Technical Details

Classification Payload
Mass 960.00 kg
Dry Mass 910.00 kg
Total Mass 960.00 kg
Length 0.30 m
Diameter 4.10 m
Span 29.00 m
Shape Box + pan
Manufacturer SPXS
Bus Type Starlink V2MD
Phase Status In Orbit
Owner/State SPXS/US

Large Constellations

Loading constellations...